x

Portland 12 Nm Southeast Of Portland,me (44007) Wave Buoy

11:50 - Sat 22nd Jul 2017 All times are EDT. -4 hours from GMT.

  • Sig Wave height 1.3ft
  • Swell Direction
  • Peak Period 6s
  • Average Period 6s
  • Wind
    9mph, 9mph gusts
  • Sea Temp 66°f
  • Luft Temp 69°f
  • Sea Pressure 1009.8mb
  • Portland 12 Nm Southeast Of Portland,me
  • Portland 12 Nm Southeast Of Portland,me

More Historic Weather Station data

Upgrade to MSW Pro to gain access to the past 30 days of data for over 8000 Wavebouys and Weather Stations around the globe.

Join Pro

Comparision Forecast

View Surf forecast
   
Sa 07/22 11:50 1.3ft 6s 6s 9 9 mph 1009.8mb 66f 69f
10:50 1.3ft 6s 6s 9 11 mph 1009.9mb 66f 68f
9:50 1.3ft 7s 6s 4 4 mph 1010.3mb 65f 67f
8:50 1.3ft 11s 5s 4 4 mph 1010.4mb 64f 67f
7:50 1.3ft 11s 6s 4 7 mph 1010mb 64f 66f
6:50 1.3ft 14s 5s 2 2 mph 1009.4mb 63f 67f
5:50 1.3ft 7s 5s  -  2 mph 1009.3mb 62f 67f
4:50 1.3ft 9s 6s 7 7 mph 1009.5mb 62f 68f
3:50 1.6ft 10s 6s 4 4 mph 1009mb 62f 68f
2:50 1.6ft 11s 6s 4 4 mph 1008.7mb 62f 68f
1:50 1.6ft 7s 5s 7 7 mph 1008.3mb 62f 71f
12:50 1.6ft 6s 5s 7 9 mph 1008.1mb 62f 71f
Fr 07/21 11:50 2ft 6s 5s 7 9 mph 1007.4mb 62f 69f
10:50 2ft 6s 5s 7 7 mph 1007.3mb 62f 69f
9:50 1.6ft 13s 4s 9 9 mph 1007.4mb 62f 70f
8:50 2ft 7s 4s 9 9 mph 1007.2mb 63f 67f
7:50 2ft 7s 4s 9 9 mph 1007.2mb 63f 68f
6:50 1.6ft 12s 4s 11 13 mph 1007.1mb 64f 70f
5:50 1.6ft 11s 4s 11 13 mph 1006.9mb 64f 69f
4:50 1.6ft 11s 4s 11 13 mph 1007mb 64f 70f
3:50 1.6ft 13s 4s 16 18 mph 1007.1mb 64f 71f
2:50 1.6ft 10s 5s 13 13 mph 1007.8mb 65f 71f
1:50 1.6ft 10s 6s 13 13 mph 1008.6mb 66f 71f
12:50 1.3ft 14s 6s 9 13 mph 1009.1mb 67f 71f
11:50 1.3ft 13s 6s 4 7 mph 1009.2mb 66f 69f
10:50 1.6ft 14s 6s 4 4 mph 1009.9mb 64f 69f
9:50 1.3ft 8s 5s 4 4 mph 1009.6mb 63f 68f
8:50 1.3ft 8s 6s 4 4 mph 1009.4mb 63f 67f
7:50 1.3ft 14s 6s 4 4 mph 1009.4mb 63f 66f
6:50 1.3ft 12s 6s 4 7 mph 1009.5mb 63f 66f
5:50 1.3ft 15s 6s 2 2 mph 1009.4mb 63f 65f
4:50 1.3ft 15s 6s  -  2 mph 1009mb 63f 66f
3:50 1.3ft 15s 7s 2 4 mph 1008.7mb 62f 65f
2:50 1.6ft 13s 7s 9 9 mph 1008.3mb 62f 66f
1:50 1.6ft 15s 6s 7 7 mph 1008.5mb 63f 66f
12:50 1.6ft 13s 6s 9 9 mph 1008.7mb 63f 69f
Do 07/20 11:50 1.6ft 14s 5s 7 9 mph 1008.8mb 62f 67f
10:50 1.6ft 15s 5s 9 11 mph 1008.8mb 64f 67f
9:50 2ft 14s 4s 11 13 mph 1008.8mb 65f 69f
8:50 2ft 15s 4s 9 11 mph 1008.8mb 65f 69f
7:50 1.6ft 15s 4s 11 13 mph 1009.3mb 66f 70f
6:50 2.5ft 3s 4s 13 16 mph 1008.9mb 66f 70f
5:50 1.6ft 14s 4s 18 20 mph 1008.9mb 67f 72f
4:50 1.6ft 12s 5s 4 7 mph 1010mb 66f 70f
3:50 1.6ft 15s 6s 9 9 mph 1010.3mb 67f 71f
2:50 2ft 13s 6s 9 11 mph 1010.5mb 67f 71f
1:50 2ft 15s 6s 7 9 mph 1011mb 67f 71f
12:50 2ft 15s 6s 7 7 mph 1012.2mb 69f 72f
11:50 2ft 14s 6s 4 4 mph 1012.7mb 68f 71f
10:50 2ft 13s 6s 4 7 mph 1012.8mb 66f 69f
9:50 2ft 15s 6s 4 7 mph 1012.6mb 66f 69f
8:50 2ft 6s 5s 4 7 mph 1012.8mb 65f 69f
7:50 2ft 6s 5s 7 7 mph 1013mb 65f 68f
6:50 2ft 15s 5s 4 4 mph 1013mb 65f 68f
5:50 1.6ft 15s 5s 2 4 mph 1012.6mb 65f 67f
4:50 1.6ft 16s 6s 4 7 mph 1012.6mb 65f 67f
3:50 2ft 16s 6s 7 7 mph 1012.5mb 65f 66f
2:50 2ft 11s 6s 4 7 mph 1013mb 66f 66f
1:50 1.6ft 16s 6s 2 2 mph 1013.2mb 66f 65f
12:50 1.6ft 16s 6s  -  2 mph 1013mb 65f 64f
Mi 07/19 11:50 1.6ft 15s 6s 4 4 mph 1013.3mb 65f 65f
10:50 1.6ft 13s 6s 4 4 mph 1013.3mb 66f 65f
9:50 2ft 15s 6s 9 13 mph 1013.1mb 67f 65f
8:50 2ft 14s 6s 4 7 mph 1012.4mb 67f 67f
7:50 1.6ft 15s 6s 2 4 mph 1012.3mb 67f 69f
6:50 2ft 16s 6s 4 4 mph 1012.4mb 68f 69f
5:50 1.6ft 8s 5s 4 4 mph 1012.6mb 68f 68f
4:50 1.6ft 8s 5s 4 4 mph 1013.1mb 68f 68f
3:50 2ft 16s 5s 7 9 mph 1013.4mb 67f 67f
2:50 2ft 16s 5s 11 13 mph 1013.8mb 68f 67f
1:50 2ft 16s 6s 11 13 mph 1014.5mb 68f 67f
12:50 2ft 12s 6s 9 11 mph 1015.1mb 68f 67f
11:50 2ft 6s 6s 9 11 mph 1015.5mb 67f 67f
10:50 2ft 16s 5s 7 9 mph 1016.1mb 67f 68f
9:50 2.5ft 7s 6s 4 7 mph 1016mb 67f 67f
8:50 2ft 16s 5s 4 4 mph 1016.5mb 67f 66f
7:50 2.5ft 7s 6s 2 2 mph 1016.4mb 66f 66f
6:50 2.5ft 7s 5s 4 4 mph 1016.4mb 66f 66f
5:50 2ft 7s 6s 4 4 mph 1016.3mb 67f 66f
4:50 2.5ft 7s 6s 4 7 mph 1016.3mb 67f 65f
3:50 2.5ft 8s 5s 2 4 mph 1016.5mb 67f 65f
2:50 2ft 17s 5s 7 7 mph 1016.5mb 67f 66f
1:50 2ft 14s 6s 7 7 mph 1017mb 67f 66f
12:50 2ft 13s 5s 9 9 mph 1017mb 67f 66f
Di 07/18 11:50 2ft 13s 5s 4 7 mph 1017.3mb 67f 66f
10:50 2.5ft 16s 5s 4 4 mph 1017.3mb 66f 68f
9:50 2ft 6s 5s 4 7 mph 1017mb 66f 68f
8:50 2.5ft 16s 5s 13 16 mph 1016.7mb 67f 67f
7:50 2.5ft 16s 5s 7 7 mph 1017.5mb 67f 67f
6:50 2.5ft 16s 5s 7 9 mph 1017.6mb 67f 67f
5:50 2.5ft 8s 5s 7 9 mph 1017.2mb 67f 67f